Regional Weather Roundup
Issued by NWS

Home | Current Version | Previous Version | Text Only | Print | Product List | Glossary On
Versions: 1 2 3 4 5 6 7 8 9 10 11 12 13 14 15 16 17 18 19 20 21 22 23 24 25 26 27 28 29 30 31 32 33 34 35 36 37 38 39 40 41 42 43 44 45 46 47 48 49 50
543
ASUS43 KMPX 041910
RWRMN
WEATHER ROUNDUP FOR MINNESOTA
NATIONAL WEATHER SERVICE TWIN CITIES/CHANHASSEN MN
200 PM CDT WED MAY 04 2016


NOTE: "FAIR" INDICATES FEW OR NO CLOUDS BELOW 12,000 FEET WITH NO
SIGNIFICANT WEATHER AND/OR OBSTRUCTIONS TO VISIBILITY. N/A MEANS
CURRENT SKY AND/OR WEATHER CONDITIONS ARE NOT AVAILABLE.

MNZ060>063-068>070-042000-
   Twin Cities Metro

CITY           SKY/WX    TMP DP  RH WIND       PRES   REMARKS
TWIN CITIES    SUNNY     64  30  27 NW18G28   29.95F
ST PAUL        SUNNY     62  30  29 NW18G28   29.95F
CRYSTAL        SUNNY     66  29  24 N14G22    29.94F
BLAINE         SUNNY    N/A N/A N/A N20G25    29.95F
EDEN PRAIRIE   SUNNY     65  32  29 N13G26    29.94F
SOUTH ST PAUL  SUNNY     64  27  24 N15G26    29.94F
LAKE ELMO      FAIR      61  36  39 NW9G22    29.95F
$$
MNZ001>005-007-008-013>017-022>024-027-028-042000-
   Northwest Minnesota

CITY           SKY/WX    TMP DP  RH WIND       PRES   REMARKS
BEMIDJI        SUNNY     60  26  28 NW12G17   30.03F
HALLOCK        SUNNY     63  27  25 CALM      30.03F
ROSEAU         SUNNY     63  18  17 N8        30.03F
WARROAD        SUNNY     54  30  40 E9        30.05F
THIEF RVR FALL SUNNY     61  27  27 NE5       30.05F
CROOKSTON      SUNNY     64  34  32 N9        30.05F
FOSSTON        SUNNY     63  25  23 N9        30.04F
DETROIT LAKES  SUNNY     63  28  27 N10G21    30.04F
MOORHEAD       SUNNY     64  32  29 N15G21    30.05F
PARK RAPIDS    SUNNY     61  21  21 N6        30.01F
MAHNOMEN       FAIR      63  26  24 N14G20    30.03F
$$
MNZ006-009>011-018-025>026-042000-
   North Central Minnesota

CITY           SKY/WX    TMP DP  RH WIND       PRES   REMARKS
BAUDETTE       SUNNY     56  19  23 NW8       30.04F
FLAG ISLAND    SUNNY     54  21  28 NE5       30.03F
INTL FALLS     SUNNY     57  18  21 N7        30.01F
WASKISH        SUNNY     61  25  25 W9        30.03F
BIG FORK       SUNNY     61  18  18 N7        30.00F
LONGVILLE      SUNNY     61  21  21 NW10G16   30.00F
GRAND RAPIDS   SUNNY     57  19  23 N17       30.00F
CRANE LAKE     SUNNY     55  18  22 NW7       30.02F
ORR            SUNNY     57  12  17 NW7       29.97F
COOK           SUNNY     57  21  24 N6        29.99S
WALKER         FAIR      58  24  26 N12G21    30.01F
$$
MNZ012-019>021-037-042000-
   Northeast Minnesota

CITY           SKY/WX    TMP DP  RH WIND       PRES   REMARKS
DULUTH         SUNNY     59  21  23 N13G20    29.95F
ELY            SUNNY     54  21  28 NW10G16   29.97F
HIBBING        SUNNY     57  17  21 N16G23    29.97F
EVELETH        SUNNY     57  18  21 N9G22     29.98F
DULUTH HARBOR  SUNNY     45  37  76 NE7       29.99S
TWO HARBORS    SUNNY     52  36  54 SE6       29.96S
SILVER BAY     SUNNY     52  30  43 SE7       29.95F
GRAND MARAIS     N/A     44  32  62 E6        29.99R
G MARAIS ARPRT SUNNY     52  27  37 N13       29.96S
$$
MNZ029>031-032-039>041-046>048-054>057-064-042000-
   West Central Minnesota

CITY           SKY/WX    TMP DP  RH WIND       PRES   REMARKS
FERGUS FALLS   SUNNY     63  36  36 N10       30.01F
WHEATON        SUNNY     66  36  32 N14G26    30.05F
MORRIS         SUNNY     66  34  30 NW21G26   30.01F
ALEXANDRIA     SUNNY     63  33  32 N14G20    30.02F
ELBOW LAKE     FAIR      62  32  32 N12G21    30.03F
WADENA         SUNNY     63  27  25 NW12G18   30.00F
GLENWOOD       SUNNY     63  30  29 N12G23    30.01F
APPLETON       SUNNY     66  28  24 NW16G24   30.02S
BENSON         SUNNY     66  27  22 N15G26    30.01F
ORTONVILLE     SUNNY     64  30  27 N18G24    30.03F
MADISON        SUNNY     64  32  29 N20       30.03F
WILLMAR        FAIR      66  32  28 N17       30.01S
$$
MNZ033>034-036-042>043-049>051-058-059-042000-
   Central Minnesota

CITY           SKY/WX    TMP DP  RH WIND       PRES   REMARKS
ST CLOUD       SUNNY     64  23  21 N15G23    29.97F
SAUK CENTRE    FAIR      63  32  31 NW15G22   29.99F
PAYNESVILLE    SUNNY     65  28  24 N15G22    29.99F
AITKIN         SUNNY     64   5   9 N10G22    29.97F
PINE RIVER     SUNNY     61  30  31 N17       30.03F
BRAINERD       SUNNY     61  26  26 N12G24    30.00F
STAPLES        SUNNY     63  21  20 NW8G20    30.00F
LONG PRAIRIE   FAIR      63  30  29 NW13G24   30.00F
LITTLE FALLS   SUNNY     61  21  21 NW8G17    29.99F
LITCHFIELD     SUNNY     64  30  27 N21G28    29.98F
BUFFALO        SUNNY     64  26  23 NW16G22   29.97F
MAPLE LAKE     SUNNY     64  33  30 NW15G28   29.98F
HUTCHINSON     SUNNY     66  35  31 NW18G24   29.99F
$$
MNZ037-044-045-052-053-042000-
   East Central Minnesota

CITY           SKY/WX    TMP DP  RH WIND       PRES   REMARKS
PRINCETON      SUNNY     64  28  25 N17       29.97F
MORA           SUNNY     61  25  25 N9G16     29.98S
CAMBRIDGE      SUNNY     63  39  42 NW15G29   29.95S
RUSH CITY      SUNNY     62  28  27 N16G23    29.95F
MOOSE LAKE     SUNNY     61  28  29 N10G23    29.95F
HINCKLEY       CLOUDY    61  27  27 N20       29.96S
CLOQUET        SUNNY     59  16  18 N10G21    29.96S
MCGREGOR       SUNNY     61  27  27 N14G21    29.98F
$$
MNZ071>073-080-081-089-090-097-098-042000-
   Southwest Minnesota

CITY           SKY/WX    TMP DP  RH WIND       PRES   REMARKS
MONTEVIDEO     SUNNY     66  30  26 N20G28    30.03F
GRANITE FALLS  SUNNY     67  35  30 NW15G24   30.03S
CANBY          SUNNY     67  37  33 N16       30.04F
MARSHALL       SUNNY     65  34  31 N18G28    30.02F
REDWOOD FALLS  SUNNY     67  30  25 NW14G24   29.99F
OLIVIA         SUNNY     64  32  29 NW14G26   29.99F
PIPESTONE      SUNNY     64  25  22 N12G21    30.04S
WINDOM         SUNNY     64  30  27 NW20G28   30.01F
WORTHINGTON    SUNNY     62  36  37 N15G25    30.03F
JACKSON        SUNNY     63  32  31 N15G25    30.02F
TRACY          SUNNY     66  35  31 NW16G25   30.02F
SLAYTON        SUNNY     63  34  34 N20       30.04F
$$
MNZ065>067-074>077-082>085-091>093-042000-
   South Central Minnesota

CITY           SKY/WX    TMP DP  RH WIND       PRES   REMARKS
MANKATO        SUNNY     64  34  32 N16G31    29.97F
NEW ULM        SUNNY     64  34  32 N12G24    29.98F
ST JAMES       SUNNY     61  28  29 NW22G30   30.00F
FAIRMONT       SUNNY     63  34  34 N18G26    29.99F
GLENCOE        SUNNY     65  36  34 NW12G23   29.97F
FARIBAULT      SUNNY     63  30  29 NW16G24   29.96F
OWATONNA       SUNNY     63  30  29 NW23G30   29.95F
WASECA         SUNNY     63  32  31 N23G29    29.97F
ALBERT LEA     SUNNY     63  30  29 NW15G24   29.95F
$$
MNZ078>079-086>088-094>096-042000-
   Southeast Minnesota

CITY           SKY/WX    TMP DP  RH WIND       PRES   REMARKS
ROCHESTER      MOSUNNY   61  34  36 NW21G30   29.94F
RED WING       SUNNY     63  28  27 N9G16     29.92F
STANTON        SUNNY     63  33  32 NW18G25   29.93F
DODGE CENTER   MOSUNNY   61  30  31 N20G29    29.94F
WINONA         MOSUNNY   61  32  33 N16G26    29.90F
AUSTIN         SUNNY     61  32  33 N16G26    29.94F
PRESTON        MOSUNNY   58  33  38 N16G25    29.92F
$$
ABBREVIATIONS USED IN REMARKS
   TC - TEMPERATURES IN CELSIUS
  WCI - WIND CHILL INDEX
   HX - HEAT INDEX
  VSB - VISIBILITY
$$




USA.gov is the U.S. government's official web portal to all federal, state and local government web resources and services.